User: anonymous   Login
Location: Petruro
(41.0333°N, 14.7833°E)
Time: 20:43:43
(UTC+00:00)
Language:

deb Delta 139 - Orbit

View from above orbital plane
View from above orbital plane
View from above satellite
View from above satellite

Ground track
Ground track

The orbit data is extracted from the following two-line orbital elements,

1 13575U 78026FN  22024.39568464 -.00000175  00000-0 -80912-4 0  9998
2 13575  99.1554   4.2347 0018932 180.9324 179.1810 14.04527032 79681
Epoch (UTC): 24 January 2022 09:29:47
Eccentricity: 0.0018932
inclination: 99.1554°
perigee height: 864 km
apogee height: 892 km
right ascension of ascending node: 4.2347°
argument of perigee: 180.9324°
revolutions per day: 14.04527032
mean anomaly at epoch: 179.1810°
orbit number at epoch: 7968

The dashed part of the orbit path shows where the satellite is in the earth's shadow,  

DLR